Regional Weather Roundup
Issued by NWS

Home | Current Version | Previous Version | Graphics & Text | Print | Product List | Glossary On
Versions: 1 2 3 4 5 6 7 8 9 10 11 12 13 14 15 16 17 18 19 20 21 22 23 24 25 26 27 28 29 30 31 32 33 34 35 36 37 38 39 40 41 42 43 44 45 46 47 48 49 50
000
ASUS43 KTOP 050859
RWRKS

WEATHER ROUNDUP FOR KANSAS
NATIONAL WEATHER SERVICE GOODLAND KS
400 AM CDT SAT SEP 05 2015

NOTE:  "FAIR" INDICATES FEW OR NO CLOUDS BELOW 12,000 FEET WITH NO
SIGNIFICANT WEATHER AND/OR OBSTRUCTIONS TO VISIBILITY.

KSZ001>006-013>018-027>032-041>047-051000-
NORTHWEST KANSAS

CITY           SKY/WX    TMP DP  RH WIND       PRES   REMARKS
GOODLAND       MOCLDY    71  56  58 S13       29.90F
HAYS           CLEAR     79  61  53 S14G21    29.92R
HILL CITY      CLEAR     77  60  55 S12G18    29.88F
RUSSELL        CLEAR     77  64  64 S14       29.90S
$$

KSZ061>065-074>080-084>089-051000-
SOUTHWEST KANSAS

CITY           SKY/WX    TMP DP  RH WIND       PRES   REMARKS
DODGE CITY     CLEAR     72  59  63 S13       29.95S
ELKHART          N/A     71  56  59 S8          N/A
GARDEN CITY    PTCLDY    73  60  63 S13       29.94R
GREAT BEND     CLEAR     77  63  61 S14       29.93R
LIBERAL        PTCLDY    72  57  60 S7        29.97S
$$

KSZ066>073-081>083-090>101-051000-
SOUTHEAST KANSAS

CITY           SKY/WX    TMP DP  RH WIND       PRES   REMARKS
CHANUTE        CLEAR     72  69  90 SE6       29.99S
COFFEYVILLE    CLEAR     73  69  87 S5        29.98R
HUTCHINSON     CLEAR     75  67  76 SE9       29.96R
NEWTON         CLEAR     72  64  78 S8        29.99S
PARSONS        CLEAR     75  70  84 SE5       29.99S
WICHITA INTL   CLEAR     74  68  81 SE8       29.96S
WICHITA JABRA  CLEAR     74  69  85 S8        29.97R
WICHITA MCCONL CLEAR     74  66  75 SE8       29.97R
WINFIELD       CLEAR     74  70  87 SE8       29.98R
$$

KSZ007>012-019>026-033>040-048>060-102>105-051000-
NORTHEAST KANSAS

CITY           SKY/WX    TMP DP  RH WIND       PRES   REMARKS
CONCORDIA      CLEAR     74  68  81 S12       29.92R
EMPORIA        CLEAR     72  69  90 S8        29.98R
LAWRENCE       CLEAR     71  68  90 E6        29.98S
MANHATTAN      CLEAR     77  69  76 S9        29.94S
OLATHE IND     CLEAR     73  69  87 SE7       30.00F
OLATHE EXE     CLEAR     71  69  93 S5        30.00S
SALINA         CLEAR     77  68  73 S14       29.93S
TOPEKA BILLARD CLEAR     74  69  85 CALM      29.97S
TOPEKA FORBES  CLEAR     73  68  84 SE6       29.98S
$$


USA.gov is the U.S. government's official web portal to all federal, state and local government web resources and services.